Weather History for Ingleside, TX

Change the Weather History Date:

Tuesday, October 8, 2013

  Actual Average Record
Temperature  
Mean Temperature 70 °F -  
Max Temperature 83 °F - - ()
Min Temperature 56 °F - - ()
Cooling Degree Days 4    
Growing Degree Days 20 (Base 50)    
Moisture  
Dew Point 57 °F    
Average Humidity 68    
Maximum Humidity 96    
Minimum Humidity 33    
Precipitation  
Precipitation 0.00 in - - ()
Sea Level Pressure  
Sea Level Pressure 30.04 in    
Wind  
Wind Speed 3 mph (NE)    
Max Wind Speed 10 mph    
Max Gust Speed -    
Visibility 10 miles    
Events      
T = Trace of Precipitation, MM = Missing Value Source: NWS Daily Summary

Daily Weather History Graph

Daily Weather History Graph

Search for Another Location

Airport:

Trip Planner

Search our weather history database for the weather conditions in past years. The results will help you decide how hot, cold, wet, or windy it might be!

Date:

Astronomy

Oct. 08, 2013 Rise Set
Actual Time 7:25 AM CDT 7:06 PM CDT
Civil Twilight 7:01 AM CDT 7:30 PM CDT
Nautical Twilight 6:34 AM CDT 7:57 PM CDT
Astronomical Twilight 6:07 AM CDT 8:24 PM CDT
Moon 11:02 AM CDT (10/8) 10:03 PM CDT (10/8)
Length of Visible Light 12h 28m
Length of Day
11h 41m
Waxing Crescent, 16% of the Moon is Illuminated
Oct 8
Waxing Crescent
Oct 11
First Quarter
Oct 18
Full
Oct 26
Last Quarter
Nov 3
New

Hourly Weather History & Observations

Time (CDT) Temp. Heat Index Dew Point Humidity Pressure Visibility Wind Dir Wind Speed Gust Speed Precip Events Conditions
12:15 AM 64.6 °F - 58.3 °F 80% 30.06 in 10.0 mi Calm Calm - N/A   Clear
12:35 AM 63.9 °F - 57.9 °F 81% 30.06 in 10.0 mi Calm Calm - N/A   Clear
12:55 AM 64.4 °F - 57.9 °F 79% 30.05 in 10.0 mi Calm Calm - N/A   Clear
1:15 AM 63.7 °F - 58.1 °F 82% 30.05 in 10.0 mi Calm Calm - N/A   Clear
1:35 AM 63.9 °F - 58.1 °F 81% 30.05 in 10.0 mi Calm Calm - N/A   Clear
1:55 AM 63.9 °F - 58.1 °F 81% 30.05 in 10.0 mi NNW 3.5 mph - N/A   Clear
2:15 AM 63.9 °F - 57.7 °F 80% 30.05 in 10.0 mi Calm Calm - N/A   Clear
2:35 AM 61.3 °F - 57.4 °F 87% 30.05 in 10.0 mi Calm Calm - N/A   Clear
2:55 AM 61.5 °F - 59.2 °F 92% 30.05 in 10.0 mi NNW 3.5 mph - N/A   Clear
3:15 AM 61.7 °F - 58.8 °F 90% 30.05 in 10.0 mi NW 5.8 mph - N/A   Clear
3:35 AM 61.0 °F - 58.1 °F 90% 30.04 in 10.0 mi NW 4.6 mph - N/A   Clear
3:55 AM 59.5 °F - 57.0 °F 91% 30.04 in 10.0 mi NNW 4.6 mph - N/A   Clear
4:15 AM 58.5 °F - 56.1 °F 92% 30.04 in 10.0 mi NNW 4.6 mph - N/A   Clear
4:35 AM 58.1 °F - 55.8 °F 92% 30.04 in 10.0 mi NNW 4.6 mph - N/A   Clear
4:55 AM 58.3 °F - 56.3 °F 93% 30.04 in 10.0 mi North 3.5 mph - N/A   Clear
5:15 AM 58.1 °F - 56.1 °F 93% 30.05 in 10.0 mi WNW 3.5 mph - N/A   Clear
5:35 AM 57.4 °F - 55.6 °F 94% 30.05 in 10.0 mi Calm Calm - N/A   Clear
5:55 AM 56.3 °F - 54.7 °F 94% 30.05 in 10.0 mi NW 3.5 mph - N/A   Clear
6:15 AM 56.1 °F - 54.9 °F 96% 30.05 in 10.0 mi Calm Calm - N/A   Clear
6:35 AM 56.7 °F - 55.4 °F 96% 30.05 in 10.0 mi NNW 3.5 mph - N/A   Clear
6:55 AM 56.8 °F - 55.0 °F 94% 30.05 in 10.0 mi NNW 4.6 mph - N/A   Clear
7:15 AM 56.5 °F - 54.7 °F 94% 30.05 in 10.0 mi NW 3.5 mph - N/A   Clear
7:35 AM 56.7 °F - 54.7 °F 93% 30.05 in 10.0 mi NNW 3.5 mph - N/A   Clear
7:55 AM 57.0 °F - 55.0 °F 93% 30.06 in 10.0 mi NNW 3.5 mph - N/A   Clear
8:15 AM 58.6 °F - 56.7 °F 93% 30.07 in 10.0 mi Calm Calm - N/A   Clear
8:35 AM 60.8 °F - 58.8 °F 93% 30.07 in 10.0 mi NNW 3.5 mph - N/A   Clear
8:55 AM 62.8 °F - 60.1 °F 91% 30.08 in 10.0 mi North 3.5 mph - N/A   Clear
9:15 AM 65.3 °F - 60.6 °F 85% 30.08 in 10.0 mi NNW 3.5 mph - N/A   Clear
9:35 AM 67.5 °F - 60.4 °F 78% 30.08 in 10.0 mi North 3.5 mph - N/A   Clear
9:55 AM 69.8 °F - 61.2 °F 74% 30.08 in 10.0 mi North 4.6 mph - N/A   Clear
10:15 AM 72.1 °F - 61.3 °F 69% 30.09 in 10.0 mi North 4.6 mph - N/A   Clear
10:35 AM 74.3 °F - 60.6 °F 62% 30.08 in 10.0 mi North 4.6 mph - N/A   Clear
10:55 AM 76.3 °F - 58.1 °F 53% 30.08 in 10.0 mi NNE 5.8 mph - N/A   Clear
11:15 AM 77.7 °F - 55.9 °F 47% 30.08 in 10.0 mi NE 5.8 mph - N/A   Clear
11:35 AM 79.0 °F - 55.9 °F 45% 30.08 in 10.0 mi NNE 3.5 mph - N/A   Clear
11:55 AM 80.2 °F 80.2 °F 54.7 °F 41% 30.08 in 10.0 mi ENE 4.6 mph - N/A   Clear
12:15 PM 81.9 °F 81.2 °F 54.5 °F 39% 30.07 in 10.0 mi ESE 4.6 mph - N/A   Clear
12:35 PM 82.8 °F 81.6 °F 53.4 °F 36% 30.07 in 10.0 mi ESE 6.9 mph - N/A   Clear
12:55 PM 83.3 °F - 52.7 °F 35% 30.06 in 10.0 mi SSE 5.8 mph - N/A   Clear
1:15 PM 83.3 °F - 51.6 °F 33% 30.05 in 10.0 mi Calm Calm - N/A   Clear
1:35 PM 83.3 °F - 52.5 °F 34% 30.04 in 10.0 mi East 6.9 mph - N/A   Clear
1:55 PM 83.7 °F - 52.2 °F 34% 30.04 in 10.0 mi East 8.1 mph - N/A   Clear
2:15 PM 83.7 °F 82.4 °F 54.1 °F 36% 30.03 in 10.0 mi ESE 5.8 mph - N/A   Clear
2:35 PM 83.5 °F 82.5 °F 55.4 °F 38% 30.02 in 10.0 mi SE 4.6 mph - N/A   Clear
2:55 PM 83.5 °F 82.5 °F 55.6 °F 38% 30.01 in 10.0 mi SE 10.4 mph - N/A   Clear
3:15 PM 83.5 °F 82.6 °F 56.3 °F 39% 30.01 in 10.0 mi ESE 3.5 mph - N/A   Clear
3:35 PM 83.3 °F 82.5 °F 55.8 °F 39% 30.01 in 10.0 mi SSE 4.6 mph - N/A   Clear
3:55 PM 83.3 °F 82.5 °F 56.1 °F 39% 30.00 in 10.0 mi ESE 6.9 mph - N/A   Clear
4:15 PM 83.1 °F 82.4 °F 56.3 °F 40% 30.00 in 10.0 mi ESE 5.8 mph - N/A   Clear
4:35 PM 82.6 °F 82.1 °F 56.7 °F 41% 30.00 in 10.0 mi SSE 8.1 mph - N/A   Clear
4:55 PM 82.4 °F 82.0 °F 57.0 °F 42% 29.99 in 10.0 mi SE 8.1 mph - N/A   Clear
5:15 PM 82.2 °F 81.9 °F 57.0 °F 42% 29.99 in 10.0 mi ESE 8.1 mph - N/A   Clear
5:35 PM 81.3 °F 81.3 °F 57.7 °F 44% 29.99 in 10.0 mi SE 8.1 mph - N/A   Clear
5:55 PM 80.6 °F 80.9 °F 57.9 °F 46% 29.99 in 10.0 mi ESE 5.8 mph - N/A   Clear
6:15 PM 79.9 °F - 59.0 °F 49% 29.99 in 10.0 mi SE 5.8 mph - N/A   Clear
6:35 PM 78.3 °F - 60.4 °F 54% 29.99 in 10.0 mi ESE 4.6 mph - N/A   Clear
6:55 PM 75.7 °F - 61.3 °F 61% 29.99 in 10.0 mi SE 5.8 mph - N/A   Clear
7:15 PM 73.6 °F - 61.0 °F 65% 29.99 in 10.0 mi SE 5.8 mph - N/A   Clear
10:35 PM - - - N/A% 30.00 in 10.0 mi ESE 4.6 mph - N/A   Unknown
10:55 PM 69.3 °F - 60.8 °F 74% 30.00 in 10.0 mi Calm Calm - N/A   Clear
11:15 PM 68.7 °F - 61.0 °F 76% 30.00 in 10.0 mi ESE 3.5 mph - N/A   Clear
11:35 PM 68.7 °F - 61.0 °F 76% 30.00 in 10.0 mi Calm Calm - N/A   Clear
11:55 PM 68.7 °F - 61.2 °F 77% 30.00 in 10.0 mi SE 3.5 mph - N/A   Clear